Date String (YYYY-MM-DD hh:mm:ss) UTC,Instrument flags,Ambient pressure (hPa),Sample flow (lpm),Bypass flow (lpm),Sample temperature (°C),Ambient temperature (°C),ASC tube jacket temperature (°C),LED temperature (°C),Box temperature (°C),Sample RH (%),Span deviation,Mass concentration (μg/m³),Mass concentration (μg/m³),Mass concentration (μg/m³)
DateTimeUTC,F1_M11,P_M11,Q1_M11,Q2_M11,T1_M11,T2_M11,T3_M11,T4_M11,T5_M11,U1_M11,ZSPAN_M11,X2_M11,X0_M11,X1_M11
2021-10-18 13:00:00,,0822.1,5.00,0.00,29.6,28.6,00.0,38.8,31.3,09.6,0000.0,0003.79,0008.87,0003.15
2021-10-18 13:01:00,,0822.1,5.00,0.00,29.6,28.6,00.0,38.8,31.3,09.7,0000.0,0003.93,0009.37,0003.27
2021-10-18 13:02:00,,0822.1,4.99,0.00,29.6,28.6,00.0,38.8,31.3,09.7,0000.0,0004.10,0009.73,0003.39
2021-10-18 13:03:00,,0822.1,5.00,0.00,29.6,28.6,00.0,38.8,31.3,09.7,-002.0,0004.25,0010.03,0003.52
2021-10-18 13:04:00,,0822.1,5.01,0.00,29.6,28.6,00.0,38.8,31.3,10.0,-002.9,0004.30,0009.78,0003.58
2021-10-18 13:05:00,,0822.1,4.99,0.00,29.6,28.7,00.0,38.8,31.3,10.0,-002.7,0004.32,0010.18,0003.60
2021-10-18 13:06:00,,0822.1,4.99,0.00,29.6,28.6,00.0,38.8,31.3,10.0,-002.1,0004.32,0010.17,0003.63
2021-10-18 13:07:00,,0822.1,5.01,0.00,29.6,28.6,00.0,38.7,31.3,09.9,-002.4,0004.32,0010.15,0003.64
2021-10-18 13:08:00,,0822.0,4.99,0.00,29.6,28.6,00.0,38.7,31.3,09.9,-003.1,0004.37,0010.21,0003.68
2021-10-18 13:09:00,,0822.0,5.00,0.00,29.6,28.6,00.0,38.7,31.3,09.9,-003.0,0004.35,0010.18,0003.67
2021-10-18 13:10:00,,0822.0,5.00,0.00,29.6,28.6,00.0,38.7,31.3,09.9,-003.1,0004.35,0010.91,0003.65
2021-10-18 13:11:00,,0822.0,5.00,0.00,29.6,28.6,00.0,38.7,31.3,09.9,-002.2,0004.27,0009.93,0003.63
2021-10-18 13:12:00,,0822.1,4.99,0.00,29.6,28.6,00.0,38.7,31.3,09.9,-001.4,0004.20,0009.63,0003.58
2021-10-18 13:13:00,,0822.1,5.00,0.00,29.6,28.6,00.0,38.7,31.3,09.9,-000.1,0004.17,0009.56,0003.53
2021-10-18 13:14:00,,0822.1,4.99,0.00,29.6,28.6,00.0,38.7,31.3,09.9,0000.6,0004.07,0008.93,0003.47
2021-10-18 13:15:00,,0822.1,4.99,0.00,29.6,28.6,00.0,38.7,31.3,09.9,0000.9,0004.05,0008.93,0003.45
2021-10-18 13:16:00,,0822.1,5.01,0.00,29.6,28.6,00.0,38.7,31.3,09.9,-000.3,0004.07,0008.68,0003.45
2021-10-18 13:17:00,,0822.1,5.00,0.00,29.6,28.6,00.0,38.7,31.3,09.9,-000.6,0004.07,0008.68,0003.46
2021-10-18 13:18:00,,0822.1,4.99,0.00,29.6,28.6,00.0,38.7,31.3,09.9,0000.0,0004.07,0008.66,0003.46
2021-10-18 13:19:00,,0822.1,5.00,0.00,29.6,28.6,00.0,38.7,31.3,09.9,0000.0,0004.04,0008.61,0003.45
2021-10-18 13:20:00,,0822.1,5.02,0.00,29.6,28.6,00.0,38.7,31.3,09.8,0000.0,0004.03,0008.67,0003.45
2021-10-18 13:21:00,,0822.1,4.99,0.00,29.6,28.6,00.0,38.7,31.3,09.9,0000.0,0003.98,0008.44,0003.43
2021-10-18 13:22:00,,0822.1,5.00,0.00,29.6,28.6,00.0,38.7,31.3,09.9,0000.0,0003.96,0008.61,0003.41
2021-10-18 13:23:00,,0822.1,5.00,0.00,29.6,28.6,00.0,38.7,31.3,10.0,0000.0,0003.90,0008.52,0003.37
2021-10-18 13:24:00,,0822.1,5.00,0.00,29.6,28.6,00.0,38.7,31.3,10.1,0000.0,0003.80,0008.35,0003.31
2021-10-18 13:25:00,,0822.1,5.00,0.00,29.6,28.6,00.0,38.7,31.3,10.1,0000.0,0003.76,0008.32,0003.26
2021-10-18 13:26:00,,0822.1,5.00,0.00,29.6,28.6,00.0,38.7,31.3,10.1,0000.0,0003.70,0008.22,0003.21
2021-10-18 13:27:00,,0822.1,5.01,0.00,29.6,28.6,00.0,38.7,31.3,10.1,0000.0,0003.63,0008.02,0003.16
2021-10-18 13:28:00,,0822.1,5.00,0.00,29.6,28.6,00.0,38.7,31.3,10.1,0000.0,0003.55,0007.95,0003.10
2021-10-18 13:29:00,,0822.1,5.00,0.00,29.6,28.6,00.0,38.7,31.3,10.1,0000.0,0003.44,0007.88,0002.98
2021-10-18 13:30:00,,0822.1,4.99,0.00,29.6,28.6,00.0,38.7,31.2,10.1,0000.0,0003.37,0007.80,0002.85
2021-10-18 13:31:00,,0822.1,4.99,0.00,29.6,28.6,00.0,38.7,31.2,10.1,0000.0,0003.31,0007.75,0002.73
2021-10-18 13:32:00,,0822.1,4.99,0.00,29.6,28.6,00.0,38.7,31.3,10.2,0000.0,0003.28,0006.78,0002.58
2021-10-18 13:33:00,,0822.1,5.00,0.00,29.6,28.6,00.0,38.7,31.3,10.3,0000.0,0003.24,0006.33,0002.48
2021-10-18 13:34:00,,0822.1,5.01,0.00,29.6,28.6,00.0,38.7,31.3,10.2,0000.0,0003.26,0006.03,0002.46
2021-10-18 13:35:00,,0822.1,5.00,0.00,29.6,28.6,00.0,38.7,31.3,10.1,0000.0,0003.39,0006.50,0002.70
2021-10-18 13:36:00,,0822.1,5.00,0.00,29.6,28.6,00.0,38.7,31.3,10.0,0000.0,0003.61,0007.03,0003.07
2021-10-18 13:37:00,,0822.1,4.99,0.00,29.6,28.6,00.0,38.7,31.3,10.1,0000.0,0003.80,0007.68,0003.25
2021-10-18 13:38:00,,0822.1,5.00,0.00,29.6,28.6,00.0,38.7,31.3,10.1,0000.0,0003.96,0008.22,0003.40
2021-10-18 13:39:00,,0822.2,4.99,0.00,29.6,28.6,00.0,38.7,31.3,10.2,0000.0,0004.05,0008.23,0003.49
2021-10-18 13:40:00,,0822.2,5.00,0.00,29.6,28.6,00.0,38.7,31.3,10.2,0000.0,0004.13,0008.27,0003.54
2021-10-18 13:41:00,,0822.2,5.00,0.00,29.6,28.6,00.0,38.7,31.3,10.1,0000.0,0004.17,0008.35,0003.58
2021-10-18 13:42:00,,0822.2,5.01,0.00,29.6,28.6,00.0,38.7,31.3,10.1,0000.0,0004.14,0008.23,0003.59
2021-10-18 13:43:00,,0822.2,5.00,0.00,29.6,28.6,00.0,38.7,31.3,10.1,0000.0,0004.14,0008.10,0003.63
2021-10-18 13:44:00,,0822.2,5.00,0.00,29.6,28.6,00.0,38.7,31.3,10.1,0000.0,0004.16,0008.11,0003.69
2021-10-18 13:45:00,,0822.2,4.98,0.00,29.6,28.6,00.0,38.7,31.3,10.1,-000.3,0004.24,0008.43,0003.75
2021-10-18 13:46:00,,0822.2,5.01,0.00,29.6,28.6,00.0,38.7,31.3,10.1,-000.0,0004.20,0008.37,0003.71
2021-10-18 13:47:00,,0822.2,4.99,0.00,29.6,28.6,00.0,38.7,31.3,10.2,0000.0,0004.04,0008.18,0003.56
2021-10-18 13:48:00,,0822.2,5.00,0.00,29.6,28.6,00.0,38.7,31.3,10.4,0000.0,0003.87,0007.88,0003.40
2021-10-18 13:49:00,,0822.2,5.02,0.00,29.6,28.6,00.0,38.7,31.3,10.5,0000.0,0003.73,0007.24,0003.25
2021-10-18 13:50:00,,0822.2,5.00,0.00,29.6,28.6,00.0,38.7,31.3,10.3,0000.0,0003.60,0007.56,0003.10
2021-10-18 13:51:00,,0822.2,5.00,0.00,29.5,28.5,00.0,38.7,31.2,10.3,0000.0,0003.51,0007.89,0002.98
2021-10-18 13:52:00,,0822.2,4.99,0.00,29.5,28.5,00.0,38.7,31.2,10.2,0000.0,0003.46,0007.85,0002.89
2021-10-18 13:53:00,,0822.1,4.99,0.00,29.5,28.5,00.0,38.7,31.3,10.3,0000.0,0003.44,0007.83,0002.81
2021-10-18 13:54:00,,0822.1,5.00,0.00,29.5,28.5,00.0,38.7,31.3,10.2,0000.0,0003.44,0007.89,0002.74
2021-10-18 13:55:00,,0822.1,5.01,0.00,29.5,28.5,00.0,38.7,31.2,10.2,0000.0,0003.39,0008.17,0002.63
2021-10-18 13:56:00,,0822.1,5.00,0.00,29.5,28.5,00.0,38.7,31.2,10.2,0000.0,0003.29,0007.99,0002.47
2021-10-18 13:57:00,,0822.2,5.00,0.00,29.5,28.5,00.0,38.7,31.2,10.2,0000.0,0003.20,0007.74,0002.29
2021-10-18 13:58:00,,0822.2,5.00,0.00,29.5,28.5,00.0,38.7,31.2,10.2,0000.0,0003.10,0007.60,0002.15
2021-10-18 13:59:00,,0822.2,5.00,0.00,29.5,28.5,00.0,38.7,31.2,10.2,0000.0,0002.98,0007.82,0002.09
